Theta_e
315 315 315 315 316 317 317 317 316 315 314 314 314 315 315 315 315 315 316 316 317 318 318 319 320 321 319 309 308 323 342 342 332 322 316 312 308 306 302 304 304 300 302 304 304 302 302
314 314 315 314 314 315 315 316 317 316 315 314 313 313 314 313 313 315 315 315 315 315 316 318 320 321 312 303 317 325 329 327 322 318 316 313 311 311 307 304 301 303 303 303 302 301 301
314 314 314 315 314 314 313 314 314 315 315 314 314 313 312 312 313 314 314 314 314 315 316 318 320 319 313 307 318 325 325 320 319 318 314 316 315 311 308 302 305 303 298 300 300 301 299
314 314 313 314 314 313 313 313 313 313 313 314 313 313 312 312 312 313 314 314 313 315 318 320 322 316 307 317 318 320 319 318 320 319 318 317 314 308 305 305 304 300 297 292 298 301 301
314 315 314 314 314 313 313 312 312 312 312 313 313 312 312 311 311 312 313 312 314 317 320 323 314 312 306 319 315 318 320 316 317 318 317 319 311 306 305 299 295 296 290 292 296 301 301
315 315 315 314 313 313 313 313 312 311 312 311 312 311 311 311 311 311 311 311 313 319 320 322 319 304 306 307 315 318 318 319 315 314 313 310 304 300 298 295 290 293 292 295 295 298 299
315 315 314 314 314 313 313 313 312 312 311 311 311 311 310 310 310 310 306 303 304 308 310 304 303 307 311 312 317 315 318 315 315 310 303 306 299 295 297 298 300 300 297 296 298 300 298
316 315 315 314 314 313 312 312 312 312 311 310 310 310 310 310 310 310 303 299 304 305 298 309 310 308 311 314 309 313 317 310 307 301 304 301 296 302 303 302 300 299 296 296 298 300 297
314 315 315 314 314 313 312 312 312 312 312 311 311 310 309 309 309 304 303 306 310 308 298 305 308 308 309 309 306 307 313 309 305 301 301 298 301 306 303 300 298 297 296 296 296 299 298
312 312 313 314 313 313 313 313 312 312 312 311 311 310 309 309 300 297 300 305 306 307 293 299 304 307 309 308 304 313 315 310 305 301 301 300 304 303 301 299 299 293 300 300 299 295 289
311 312 311 311 312 313 312 312 312 312 311 311 311 309 309 307 296 293 302 302 305 305 280 300 303 312 309 305 306 307 315 309 303 302 302 300 301 300 299 300 301 296 301 298 299 293 291
310 311 311 311 311 312 312 312 311 312 311 311 311 310 309 301 298 298 302 301 304 292 282 297 302 302 302 305 306 307 308 311 309 303 303 302 306 304 303 303 301 302 298 298 295 291 285
310 310 310 310 310 310 311 311 312 311 311 311 311 310 306 304 295 301 302 301 290 285 297 294 296 300 300 300 302 303 302 302 299 294 295 300 301 304 302 297 300 298 293 286 283 283 283
309 309 309 309 309 309 309 310 310 311 311 310 310 309 306 305 301 302 297 295 284 291 293 300 299 298 296 300 299 301 299 298 301 298 295 293 292 301 304 298 295 294 294 287 281 282 288
308 308 308 308 309 309 309 309 309 310 310 309 308 300 301 302 304 300 292 288 288 292 296 296 297 294 294 298 299 299 298 297 299 300 295 293 294 303 303 302 300 294 292 296 290 292 288
305 306 307 308 308 308 308 309 309 309 310 309 301 295 296 302 303 295 288 291 293 299 300 298 291 295 292 295 295 295 297 300 300 302 303 298 293 300 304 307 305 298 300 291 289 282 282
304 304 306 307 307 308 308 308 308 309 309 308 299 292 298 303 301 289 285 291 295 301 300 297 294 293 294 293 295 295 296 301 302 302 304 301 295 296 304 301 297 299 297 298 295 292 284
304 304 304 306 307 307 307 307 307 308 307 304 296 287 298 303 287 287 284 292 297 297 300 298 298 296 294 295 295 295 296 299 304 304 299 300 296 293 300 306 308 306 303 301 293 292 293
304 304 304 305 306 307 306 306 307 307 306 300 292 290 298 300 283 283 287 290 295 296 297 296 295 297 298 294 292 296 299 304 305 303 300 301 294 291 293 300 304 299 303 304 302 299 293
306 304 304 304 305 305 306 306 306 306 306 301 294 287 290 296 293 286 284 285 288 295 295 297 296 297 294 292 295 294 297 304 306 305 311 307 295 296 292 295 301 298 301 303 301 294 294
307 306 304 304 305 305 306 306 306 305 306 301 295 290 290 286 288 289 287 287 285 286 294 296 293 294 293 290 293 293 296 299 304 310 305 302 295 297 299 301 303 301 301 301 300 300 296
306 306 305 304 305 305 305 306 306 305 305 298 288 291 290 291 291 289 290 287 288 290 289 290 290 293 294 291 293 292 297 298 299 304 305 304 294 300 300 303 302 300 302 302 302 302 301
305 305 305 305 306 306 306 306 306 305 304 294 294 298 294 289 289 289 288 289 290 292 293 294 293 293 293 296 299 299 299 301 304 303 304 300 298 294 293 301 299 294 300 301 303 303 302
305 305 305 305 305 306 305 305 305 305 303 296 297 298 291 284 289 289 292 292 292 294 291 295 297 294 298 303 303 300 309 309 307 304 308 299 295 294 293 297 287 299 306 306 303 304 304
305 304 306 305 305 305 305 304 305 306 305 300 300 297 294 285 289 290 291 291 294 293 292 295 298 301 301 300 295 294 300 300 304 307 303 303 298 293 291 287 295 299 304 303 301 300 307
306 305 305 304 305 304 305 305 305 306 305 300 296 302 296 289 286 293 290 292 289 287 290 294 299 301 300 296 293 288 289 295 295 300 306 303 301 295 288 286 285 296 304 310 307 295 306
306 306 304 304 305 305 305 305 305 306 306 301 300 303 297 290 293 293 288 288 292 291 290 292 295 296 299 293 285 287 290 297 293 295 296 295 295 291 287 284 293 302 306 309 294 296 310
305 306 304 305 304 305 305 305 305 305 306 302 297 303 299 292 293 295 296 292 292 292 290 291 293 295 295 291 291 292 293 296 295 300 297 295 290 290 289 286 288 308 305 299 303 306 310
304 306 305 305 305 305 305 305 305 306 305 304 297 303 305 295 290 295 296 297 296 295 296 293 292 295 300 297 296 295 292 295 294 291 302 295 297 293 294 294 303 308 307 309 308 307 311
Wind_Speed
11 11 11 11 12 11 10 10 10 12 12 14 16 17 18 18 19 19 19 19 19 20 18 15 11 9 3 4 12 3 8 9 10 9 10 6 3 3 6 5 3 5 5 6 6 8 5
14 13 14 13 12 11 12 12 11 11 12 14 15 17 18 19 20 20 20 20 20 18 16 14 10 3 3 10 5 7 7 5 7 7 6 7 7 9 5 5 5 5 7 9 5 6 6
15 15 14 12 12 11 12 13 14 14 14 14 14 15 18 19 20 21 21 22 22 21 19 16 7 4 4 17 1 4 15 7 6 9 6 8 7 5 2 4 4 6 6 3 6 7 5
15 15 15 14 13 14 15 16 15 14 14 14 15 16 17 19 21 21 21 23 24 21 20 13 6 4 10 7 12 4 4 4 6 7 9 6 7 4 2 0 4 4 6 3 6 7 2
16 14 14 14 13 13 14 15 15 16 16 16 15 15 17 21 23 23 23 27 26 18 7 5 4 3 10 6 8 10 9 7 9 8 6 6 2 4 5 3 5 4 4 6 4 8 6
17 17 16 16 15 15 14 13 14 15 15 16 15 16 17 20 23 22 25 28 15 1 3 5 6 1 7 6 5 6 12 10 6 6 4 4 4 2 3 4 7 6 5 5 6 6 6
18 17 17 17 17 16 16 15 14 15 15 16 17 17 18 19 21 19 14 8 3 3 2 10 7 6 7 8 4 7 10 9 5 4 8 3 3 5 8 8 5 6 6 9 4 6 7
21 20 18 18 18 18 17 17 16 15 15 15 15 16 18 19 21 19 3 4 6 7 8 11 15 18 23 5 4 7 9 11 8 8 5 0 7 8 8 7 8 7 9 12 7 8 8
17 18 21 21 20 18 17 18 17 16 15 14 13 14 17 19 22 8 5 8 14 11 4 8 9 8 14 7 12 15 9 8 6 7 8 9 8 8 10 9 9 7 8 11 6 1 6
19 18 19 20 22 20 17 16 16 16 15 14 13 11 13 17 6 5 5 8 13 4 2 8 8 9 10 8 8 9 11 10 6 15 8 8 10 12 10 12 10 9 8 14 6 7 7
20 20 21 19 19 21 20 19 17 16 16 14 12 11 10 5 7 5 6 14 14 3 5 8 9 11 11 14 6 7 12 6 13 7 8 15 8 8 12 18 13 11 7 8 7 7 4
22 21 22 20 20 19 21 21 20 17 16 14 12 11 7 5 2 7 14 15 1 5 11 7 4 14 12 17 11 7 5 11 9 10 7 13 9 9 15 10 14 8 4 6 6 4 1
23 22 21 20 20 20 19 22 22 20 16 14 13 12 6 4 5 8 11 2 2 9 6 6 7 7 25 15 13 10 15 15 12 6 12 7 16 10 6 7 5 5 7 2 5 5 7
24 25 24 22 22 22 20 19 19 21 19 14 11 10 6 9 4 9 5 4 12 10 16 4 3 3 16 20 12 13 12 17 13 6 6 10 13 13 6 9 9 7 10 8 8 4 10
27 26 25 25 24 20 19 19 17 20 19 14 9 2 3 7 8 2 1 13 15 10 19 8 4 2 6 14 9 17 18 16 9 11 14 9 14 8 5 7 15 5 4 10 6 3 1
29 26 27 26 23 23 21 20 18 17 19 16 4 3 6 7 11 4 3 29 9 9 3 24 16 7 7 8 17 15 21 18 20 14 10 9 11 11 10 2 4 12 6 3 3 5 5
29 29 26 25 25 22 22 21 19 18 18 16 4 3 10 12 8 3 15 19 22 4 8 7 18 6 9 6 7 14 15 22 21 19 18 14 7 5 4 6 9 1 3 5 4 6 3
30 29 28 26 26 23 23 20 20 18 18 17 5 5 4 15 7 5 19 12 5 19 10 5 3 6 6 4 4 7 8 15 21 23 13 12 9 12 4 5 5 2 8 8 6 4 2
31 30 28 25 24 23 22 20 19 20 20 5 6 3 3 9 9 9 17 22 14 9 7 3 6 5 2 5 3 8 9 7 10 26 23 11 6 4 6 6 4 3 5 7 10 3 7
30 29 26 24 21 18 22 19 17 18 20 7 5 6 3 8 9 12 13 19 11 16 18 14 10 6 5 6 5 7 5 5 7 12 20 20 9 20 16 11 7 4 10 15 9 6 5
23 22 24 23 21 17 21 19 18 16 18 6 6 5 6 9 13 20 7 4 19 10 16 8 6 19 11 6 2 12 8 12 16 8 3 10 13 8 18 14 16 9 14 16 19 17 10
14 16 17 20 21 20 20 19 19 18 17 7 5 4 1 2 17 19 15 15 16 9 18 14 20 20 7 11 16 6 7 2 9 3 18 4 6 7 3 11 10 5 8 14 20 18 14
17 15 13 14 18 20 21 19 18 19 15 3 2 4 3 4 2 8 16 23 11 14 13 15 20 11 14 26 11 12 12 15 15 9 7 8 8 3 6 14 10 2 10 14 18 11 16
19 20 15 15 14 15 16 17 17 18 17 4 3 2 2 4 6 6 3 10 16 10 16 16 9 9 10 7 9 8 6 2 3 5 13 6 7 6 6 8 8 5 8 14 14 5 7
18 18 13 3 8 11 13 12 16 19 21 3 3 0 1 2 3 4 6 4 5 6 3 6 14 16 3 4 3 5 3 2 4 4 5 1 6 6 9 3 1 3 7 10 10 12 16
20 14 10 3 7 8 10 14 16 18 21 4 2 3 1 0 1 4 3 3 1 4 6 4 9 5 5 2 4 7 7 5 6 5 9 6 8 7 4 8 10 6 5 7 7 10 6
31 11 11 2 9 6 7 12 14 17 20 5 2 3 3 1 3 3 2 2 4 4 2 5 5 4 8 4 1 4 7 19 7 12 6 4 4 6 3 3 5 4 8 7 11 6 8
32 21 11 9 3 4 8 13 13 14 17 5 2 4 1 3 3 1 1 2 3 1 1 4 2 3 2 3 5 6 5 9 6 7 9 7 6 4 4 4 5 9 4 12 11 4 7
29 29 10 13 10 5 6 8 13 13 16 9 2 1 4 3 4 3 4 6 6 4 1 2 2 3 2 2 3 4 3 5 9 5 4 5 8 9 9 8 8 17 9 10 8 7 7
Wind_Direction
311 311 316 316 321 327 325 319 323 326 329 332 332 332 332 332 326 319 314 313 309 304 308 304 300 304 313 225 241 328 86 106 132 162 191 193 209 151 240 248 229 106 142 115 129 107 118
309 310 311 313 315 313 313 312 309 314 319 320 324 326 327 328 323 316 312 307 303 301 296 294 293 300 235 247 254 184 138 166 169 169 188 152 212 207 271 261 141 150 136 152 152 147 158
299 300 298 295 296 301 301 302 304 312 314 313 314 319 323 322 318 315 313 311 307 304 302 295 267 221 257 232 159 191 166 212 191 182 193 209 211 161 230 226 179 155 122 159 186 171 178
277 283 289 292 290 293 298 299 304 305 304 309 318 320 316 318 312 312 311 306 300 300 295 288 199 212 244 220 252 139 250 226 212 221 223 206 217 154 162 204 15 163 88 162 257 150 183
282 272 267 268 274 278 282 290 296 300 304 305 310 312 317 315 316 318 314 305 297 293 272 129 143 187 258 286 175 217 187 211 208 222 243 234 180 160 22 46 358 345 223 230 292 191 141
264 266 266 264 265 270 272 273 274 279 288 298 306 311 312 313 317 321 319 299 287 149 154 190 260 42 274 248 187 189 201 220 206 228 275 198 65 128 35 88 238 251 278 256 219 217 156
264 259 264 267 264 268 272 274 276 284 295 300 304 309 312 312 314 321 339 340 4 32 222 199 197 231 288 217 354 194 182 194 201 189 209 236 147 213 232 225 213 229 246 263 267 230 145
270 269 262 255 249 254 257 258 260 266 275 282 289 296 303 307 308 310 275 253 236 121 293 237 242 243 265 345 272 228 142 168 158 196 157 327 226 217 228 240 239 246 258 271 306 227 154
287 278 267 266 263 251 249 243 245 247 254 264 274 289 303 310 312 302 188 263 333 327 243 277 215 227 244 180 239 258 188 165 153 170 186 193 217 208 230 252 253 255 242 261 223 94 318
282 284 282 272 259 257 258 255 252 242 242 247 257 271 297 317 300 330 242 337 322 301 280 264 215 219 237 186 259 229 208 156 189 190 176 213 225 229 247 238 223 247 234 251 214 143 209
284 283 273 272 266 253 252 252 251 246 246 245 244 256 284 300 298 280 342 325 314 78 277 246 223 189 184 203 130 250 211 190 185 171 154 227 219 227 232 231 217 231 220 232 183 169 153
287 280 279 269 266 264 247 241 252 245 240 241 240 244 275 304 164 263 311 307 36 70 241 268 210 182 165 201 205 245 218 192 170 185 204 216 219 221 235 232 214 209 189 36 56 89 18
283 279 276 271 269 263 259 248 234 241 240 229 233 240 216 269 238 333 324 351 117 199 198 225 240 163 197 198 208 194 224 199 178 163 208 232 246 255 200 220 170 99 75 303 340 356 227
286 281 274 267 266 260 258 253 248 230 237 229 220 228 227 233 263 336 329 80 218 202 200 198 239 175 192 193 212 206 221 215 217 154 173 207 248 253 212 195 182 177 152 160 206 202 264
299 287 279 275 271 254 249 250 245 235 219 218 203 239 230 240 227 160 264 204 213 200 201 218 61 160 217 212 202 205 222 225 196 175 208 192 235 260 222 221 160 207 162 190 156 199 101
298 293 286 275 266 256 252 246 240 228 214 183 156 195 242 183 176 135 175 224 213 179 165 204 224 181 196 200 199 200 210 218 222 198 181 219 226 230 254 207 329 174 174 107 16 190 248
292 291 289 282 264 254 244 243 230 221 205 171 139 194 256 170 133 156 216 221 217 240 229 170 219 245 206 176 186 213 217 225 212 208 194 196 159 262 136 170 191 94 81 70 112 140 186
285 283 281 282 272 255 246 237 227 219 195 162 155 197 257 146 161 198 222 197 284 216 256 271 301 218 234 226 274 216 221 217 211 211 193 200 177 227 214 286 247 128 156 122 115 302 305
278 276 275 278 276 257 247 232 228 224 183 147 169 214 229 179 193 215 233 225 246 247 221 246 242 203 156 196 237 209 243 253 247 208 205 182 205 128 354 342 355 169 133 88 99 105 236
271 266 268 269 269 257 246 223 214 225 190 180 171 178 274 206 239 210 219 227 222 240 263 265 285 313 294 271 212 271 289 280 280 205 198 182 170 202 207 198 147 188 166 171 165 180 225
299 257 265 261 261 250 238 218 206 195 200 208 195 203 174 181 217 233 216 251 213 233 220 233 262 237 243 299 336 241 259 283 286 229 201 211 200 190 213 176 183 188 189 193 205 218 202
299 281 266 255 253 237 234 215 206 184 200 214 170 201 261 227 208 218 227 238 241 237 224 238 236 252 312 256 234 312 335 259 246 296 182 206 211 114 62 149 149 148 212 214 215 220 230
338 315 282 264 262 238 216 206 197 185 174 118 298 274 59 239 141 184 218 236 242 246 272 254 246 262 230 248 270 260 260 273 257 217 189 163 144 96 151 140 114 236 195 212 229 222 213
345 338 285 267 260 213 191 193 193 183 173 146 171 315 136 270 167 241 203 224 236 256 238 263 280 247 284 314 315 286 192 150 188 37 113 211 118 117 150 130 211 187 163 198 223 218 208
352 354 11 90 171 175 182 175 194 184 175 139 122 213 157 260 156 253 267 290 9 357 315 280 271 266 333 351 293 211 227 124 336 34 346 21 122 104 143 207 51 172 165 155 164 244 202
346 343 359 359 169 182 183 187 187 182 179 108 142 134 326 50 242 3 14 12 335 330 322 251 285 243 72 162 194 224 152 193 210 109 351 49 65 106 141 159 206 188 165 124 103 255 196
359 358 9 17 174 190 184 176 171 179 170 132 132 138 147 211 278 27 90 166 169 170 213 298 337 288 151 179 151 236 176 200 208 162 166 66 50 123 103 105 279 261 140 126 175 227 197
4 26 27 52 105 191 161 165 162 164 172 144 157 97 271 171 284 359 44 122 339 117 176 311 339 277 270 152 187 238 173 186 145 161 160 142 133 148 95 104 228 162 115 169 207 178 170
5 15 32 29 39 89 145 175 174 167 194 161 120 298 228 91 236 234 234 231 202 213 101 329 300 232 48 223 313 279 222 149 145 190 203 166 173 159 165 200 217 190 190 217 178 166 186